Home   Weather   Brantford   Past weeks

Flag for Canada Past Weather in Brantford, Ontario, Canada — Yesterday and Last 2 Weeks

Now
46 °F

Partly cloudy.


Feels Like: 44 °F
Forecast: 44 / 60 °F
Wind: 6 mph from Southwest

Location: Hamilton Airport

Current Time: Apr 28, 2017 at 6:22:53 am

Latest Report: Apr 28, 2017 at 6:00 am


Visibility: 15 mi

Pressure: 29.92 "Hg

Humidity: 87%

Dew Point: 43 °F

Location of BrantfordLocation

Past Weather in Brantford — Graph

°F

Brantford Temperature Yesterday

Maximum temperature yesterday: 81 °F (at 3:00 pm)
Minimum temperature yesterday: 46 °F (at 5:00 am)
Average temperature yesterday: 60 °F

High & Low Weather Summary for the Past Weeks

 TemperatureHumidityPressure
High81 °F (Apr 27, 3:00 pm)100% (Apr 20, 11:00 am)30.54 "Hg (Apr 20, 11:00 am)
Low30 °F (Apr 18, 5:00 am)28% (Apr 23, 4:00 pm)29.54 "Hg (Apr 27, 4:00 pm)
Average49 °F78%30.03 "Hg
* Reported Apr 13 5:00 am — Apr 28 5:00 am, Brantford, Weather by CustomWeather, © 2017

Note: Actual official high and low records may vary slightly from our data, if they occured in-between our weather recording intervals... More about our weather records

Advertising

Brantford Weather History for the Previous 24 Hours

Scroll right to see more
 ConditionsComfort  
Time TempWeatherWind HumidityBarometerVisibility
5:00 am
Fri, Apr 28
48 °FPartly cloudy.3 mph87%29.89 "Hg15 mi
4:00 am48 °FPassing clouds.7 mph87%29.88 "Hg15 mi
3:00 am50 °FPassing clouds.10 mph82%29.84 "Hg15 mi
2:00 am50 °FPassing clouds.13 mph82%29.83 "Hg15 mi
1:00 am52 °FPassing clouds.14 mph82%29.80 "Hg15 mi
12:00 am54 °FPassing clouds.14 mph82%29.76 "Hg15 mi
11:00 pm
Thu, Apr 27
55 °FPassing clouds.15 mph77%29.70 "Hg15 mi
10:00 pm59 °FPassing clouds.18 mph77%29.67 "Hg15 mi
9:00 pm61 °FPartly cloudy.13 mph88%29.65 "Hg15 mi
8:00 pm61 °FSprinkles. Broken clouds.10 mph94%29.64 "Hg15 mi
7:28 pm61 °FSprinkles. Partly sunny.9 mph94%29.62 "Hg15 mi
7:00 pm63 °FThunderstorms. Mostly cloudy.8 mph88%29.62 "Hg15 mi
6:00 pm64 °FThunderstorms. More clouds than sun.15 mph83%29.59 "Hg12 mi
5:12 pm70 °FSprinkles. Broken clouds.24 mph69%29.58 "Hg15 mi
4:53 pm77 °FSprinkles. Partly sunny.16 mph51%29.54 "Hg15 mi
4:00 pm81 °FPartly sunny.17 mph51%29.54 "Hg15 mi
3:00 pm81 °FPartly sunny.12 mph51%29.56 "Hg15 mi
2:00 pm79 °FBroken clouds.20 mph51%29.61 "Hg15 mi
1:00 pm77 °FScattered clouds.17 mph54%29.62 "Hg15 mi
12:00 pm75 °FBroken clouds.15 mph61%29.63 "Hg15 mi
11:00 am73 °FScattered clouds.12 mph61%29.64 "Hg15 mi
10:00 am64 °FScattered clouds.7 mph78%29.66 "Hg15 mi
9:00 am57 °FPartly sunny.7 mph88%29.67 "Hg15 mi
8:00 am52 °FScattered clouds.8 mph88%29.67 "Hg12 mi
7:00 am46 °FFog.7 mph100%29.66 "Hg4 mi
6:00 am46 °FFog.10 mph93%29.65 "Hg3 mi
Weather by CustomWeather, © 2017

See weather overviewHow to use our weather pages